Weather Roundup
Issued by NWS

Home | Current Version | Previous Version | Text Only | Print | Product List | Glossary On
Versions: 1 2 3 4 5 6 7 8 9 10 11 12 13 14 15 16 17 18 19 20 21 22 23 24 25 26 27 28 29 30 31 32 33 34 35 36 37 38 39 40 41 42 43 44 45 46 47 48 49 50
527
NZUS93 KARX 171310
HRRWXR

CURRENT HOURLY OBSERVATIONS ACROSS
MUCH OF THE UPPER MISSISSIPPI VALLEY
NATIONAL WEATHER SERVICE LA CROSSE WI
800 AM CDT TUE SEP 17 2019


...SOUTHEAST MINNESOTA...


CITY           SKY/WX    TMP DP  RH WIND       PRES   REMARKS
ROCHESTER      FAIR      67  59  75 S14       30.09R
ROCHESTER/MAYO FAIR      68  60  76 SE10G18   30.09S
WINONA         FAIR      70  64  83 SE5       30.09S
AUSTIN         FAIR      70  59  68 SE6       30.08S
ALBERT LEA     FAIR      66  64  94 S12G18    30.06R
DODGE CENTER   FAIR      66  61  82 SE9       30.07S
PRESTON        FAIR      66  61  84 S8        30.12R
OWATONNA       FAIR      70  64  83 SE15      30.04R
FARIBAULT      NOT AVBL
$$

...ELSEWHERE IN MINNESOTA...


CITY           SKY/WX    TMP DP  RH WIND       PRES   REMARKS
MINNEAPOLIS    CLOUDY    71  64  78 SE8       30.00S
INTNL FALLS    CLOUDY    68  66  93 SE7       29.92S FOG
DULUTH         PTSUNNY   62  58  86 SE7       30.03S
RED WING       FAIR      70  54  56 SE8G16    30.05S
REDWOOD FALLS  CLEAR     74  70  87 S18       29.90S
MANKATO        FAIR      70  68  93 S14       29.99S
WORTHINGTON    CLEAR     72  68  87 S14G21    29.95S
FAIRMONT       SUNNY     71  68  90 S16       30.00R
$$

...SOUTHWEST WISCONSIN...


CITY           SKY/WX    TMP DP  RH WIND       PRES   REMARKS
LA CROSSE      FAIR      70  63  78 S8        30.11R
PRAIRIE DU CHI FAIR      65  60  82 E5        30.13S
BOSCOBEL       FAIR      64  61  90 CALM      30.14F
LONE ROCK      FAIR      63  60  90 NE3       30.16R
PLATTEVILLE    FAIR      61  61 100 SE7       30.17R
FORT MC COY    FAIR      55  55  98 CALM      30.14S
MAUSTON-NEW LI FAIR      61  61 100 CALM      30.15S FOG
VIROQUA        FAIR      64  62  91 SE8       30.15R
WIS DELLS      NOT AVBL
$$

...ELSEWHERE IN WISCONSIN...


CITY           SKY/WX    TMP DP  RH WIND       PRES   REMARKS
MILWAUKEE      FOG       61  59  93 E5        30.21R VSB 1/2
MADISON        PTSUNNY   62  60  93 S8        30.18R FOG
GREEN BAY      FAIR      62  59  90 SE3       30.20R
EAU CLAIRE     PTSUNNY   68  64  87 S6        30.09R
BLACK RVR FLS  FAIR      64  64 100 CALM      30.12F
MEDFORD        FAIR      61  60  96 S5        30.15S
WAUSAU         FAIR      60  58  92 E3        30.17R
WIS RAPIDS     FAIR      64  57  78 SE7       30.17R
MARSHFIELD     FAIR      63  59  87 E3        30.15R
RICE LAKE      FAIR      67  51  57 SE9       30.09S
$$

...NORTHEAST IOWA...


CITY           SKY/WX    TMP DP  RH WIND       PRES   REMARKS
WATERLOO       FAIR      70  63  78 SE10      30.09R
DUBUQUE        PTSUNNY   60  60 100 S7        30.16R FOG
DECORAH        FAIR      66  64  94 S9        30.11S
MASON CITY     SUNNY     67  64  90 S10       30.08R
CHARLES CITY   FAIR      66  63  88 SE8G16    30.10R
OELWEIN        SUNNY     64  64 100 SE14      30.13R FOG
$$

...ELSEWHERE IN IOWA...


CITY           SKY/WX    TMP DP  RH WIND       PRES   REMARKS
DES MOINES     MOSUNNY   71  68  90 SE9       30.05R
IOWA CITY      FAIR      67  63  87 SE6       30.14R
FORT DODGE     SUNNY     71  69  93 SE9       30.05R
MARSHALLTOWN   SUNNY     66  66 100 SE10      30.08R FOG
CEDAR RAPIDS   FAIR      66  64  93 SE6       30.12R
$$

...NORTHERN ILLINOIS...


CITY           SKY/WX    TMP DP  RH WIND       PRES   REMARKS
CHICAGO-OHARE  CLOUDY    67  64  90 E3        30.18R
CHICAGO-MIDWAY CLOUDY    67  65  93 NE7       30.18R FOG
MOLINE         CLOUDY    65  62  90 E8        30.14S FOG
ROCKFORD       CLOUDY    65  63  93 SE7       30.19S FOG
PEORIA         PTSUNNY   66  63  90 E9        30.15R FOG
$$

NOTE: "FAIR" INDICATES FEW OR NO CLOUDS BELOW 12,000 FEET WITH NO
SIGNIFICANT WEATHER AND/OR OBSTRUCTIONS TO VISIBILITY. WIND
SPEEDS ARE IN MILES-PER-HOUR.




USA.gov is the U.S. government's official web portal to all federal, state and local government web resources and services.